Regional Weather Roundup
Issued by NWS Northern Indiana

Home | Current Version | Previous Version | Text Only | Print | Product List | Glossary Off
Versions: 1 2 3 4 5 6 7 8 9 10 11 12 13 14 15 16 17 18 19 20 21 22 23 24 25 26 27 28 29 30 31 32 33 34 35 36 37 38 39 40 41 42 43 44 45 46 47 48 49 50

000
ASUS43 KIWX 152200
RWRIWX

KIWX WEATHER ROUNDUP
NATIONAL WEATHER SERVICE NORTHERN INDIANA
600 PM EDT TUE APR 15 2014

NOTE: "FAIR" INDICATES FEW OR NO CLOUDS BELOW 12,000 FEET WITH NO
SIGNIFICANT WEATHER AND/OR OBSTRUCTIONS TO VISIBILITY.

* THESE STATIONS ARE NOT UNDER NWS QUALITY CONTROL. THEY ALSO MAY NOT
  REPORT WEATHER SUCH AS PRECIPITATION OR FOG.

INZ001>027-152300-
NORTHERN INDIANA

CITY           SKY/WX    TMP DP  RH WIND       PRES   REMARKS
VALPARAISO     PTSUNNY   34  13  41 W8        30.16S WCI  27
SOUTH BEND     SUNNY     34  10  37 NW16G23   30.17R WCI  24
ELKHART*       MOSUNNY   34   7  32 NW12G18   30.16  WCI  25
GOSHEN         MOSUNNY   32  10  40 NW13G24   30.16R WCI  22
ANGOLA*        MOSUNNY   30  10  43 NW14      30.12R WCI  20
FORT WAYNE     MOSUNNY   34  12  40 NW17G32   30.14R WCI  23

$$
INZ028>050-152300-
CENTRAL INDIANA

CITY           SKY/WX    TMP DP  RH WIND       PRES   REMARKS
LAFAYETTE      CLOUDY    36  14  40 NW9       30.18R
KOKOMO*        MOSUNNY   36  16  44 NW10      30.16R
MUNCIE*        PTSUNNY   34  15  46 NW14      30.14R WCI  25
INDIANAPOLIS   PTSUNNY   35  17  47 N14       30.17R WCI  26

$$
MIZ043>046-050>051-056>058-064>065-071>073-077>080-152300-
SOUTHWEST LOWER MICHIGAN

CITY           SKY/WX    TMP DP  RH WIND       PRES   REMARKS
BATTLE CREEK   PTSUNNY   32   9  38 NW17G26   30.12R WCI  21
BENTON HARBOR  SUNNY     29  12  49 MISG      30.17S
COLDWATER*     MOSUNNY   33   7  33 NW18G26   30.12R WCI  21
HILLSDALE*     MOSUNNY   33  12  42 NW17G26   30.08R WCI  22
HOLLAND        SUNNY     32  15  49 W9        30.16R WCI  24
GRAND RAPIDS   PTSUNNY   32  10  40 W15G24    30.12R WCI  22
KALAMAZOO      MOSUNNY   33   4  29 NW17G25   30.13R WCI  22
STURGIS*       SUNNY     32   7  34 NW16G24   30.14R WCI  21
THREE RIVERS*  FAIR      34   8  33 NW18G25   30.15R WCI  23

$$
OHZ001>008-015>018-024>025-152300-
NORTHWEST OHIO

CITY           SKY/WX    TMP DP  RH WIND       PRES   REMARKS
DEFIANCE       MOSUNNY   35  14  42 NW17G25   30.12R WCI  25
FINDLAY        CLOUDY    33  17  51 NW17G24   30.10R WCI  22
TOLEDO EXPRESS PTSUNNY   34  14  43 NW10G20   30.10R WCI  26
TOLEDO METCALF CLOUDY    35  16  45 NW22      30.10R WCI  23
LIMA           CLOUDY    33  18  53 NW22G29   30.11R WCI  21

$$
&&



USA.gov is the U.S. government's official web portal to all federal, state and local government web resources and services.